Location: ???? ?????????
(31.1304°N, 31.7111°E)
Time: 10:25:27
(UTC+00:00)

A-11 Canister half - Visible Passes

Search period start: 01 March 2021 00:00
Search period end: 11 March 2021 00:00
Orbit: 1516 x 1684 km, 47.2° (Epoch: 28 February)

Date Brightness Start Highest point End Pass type
(mag) Time Alt. Az. Time Alt. Az. Time Alt. Az.
01 Mar 11.5 17:57:02 10° WSW 17:58:34 10° WSW 18:00:06 10° SW visible
02 Mar 11.4 17:32:31 10° W 17:35:45 12° WSW 17:38:57 10° SW visible
03 Mar 11.3 17:08:40 10° W 17:12:56 14° WSW 17:17:08 10° SSW visible
04 Mar 11.3 16:45:04 10° W 16:50:06 16° WSW 16:55:05 10° SSW visible
05 Mar 11.6 03:49:12 10° SSE 03:53:55 14° ESE 03:58:37 10° E visible
05 Mar 11.3 16:21:35 10° W 16:27:16 17° WSW 16:32:53 10° SSW visible
06 Mar 11.7 03:27:19 10° SE 03:31:03 13° ESE 03:34:48 10° E visible
07 Mar 11.7 03:05:55 10° SE 03:08:12 11° ESE 03:10:30 10° ESE visible
